N8DNY-13 Weather Reports


Display with metric or nautical units.
time (UTC)temp
F
wind
direction
speed
MPH
gust
MPH
rain 1hr
in
rain 24hr
in
rain mn
in
humidity
%
barometer
mb
20260508194910 64 247 2.0 2.0 0.00 0.00 0.00 62 1013.5
20260508193340 64 261 1.0 2.0 0.00 0.00 0.00 60 1013.7
20260508191840 65 277 4.0 6.0 0.00 0.00 0.00 52 1014.0
20260508190354 65 269 0.0 1.0 0.00 0.00 0.00 48 1014.0
20260508184830 65 274 0.0 1.0 0.00 0.00 0.00 48 1014.1
20260508183329 65 293 0.0 1.0 0.00 0.00 0.00 53 1014.5
20260508181827 64 267 3.0 4.0 0.00 0.00 0.00 55 1014.2
20260508180323 63 284 0.0 1.0 0.00 0.00 0.00 54 1014.6
20260508174820 65 281 2.0 3.0 0.00 0.00 0.00 50 1014.6
20260508173338 65 288 0.0 1.0 0.00 0.00 0.00 50 1015.0
20260508171817 64 289 0.0 0.0 0.00 0.00 0.00 52 1015.1
20260508170332 63 264 0.0 2.0 0.00 0.00 0.00 53 1015.3
20260508164810 62 268 1.0 2.0 0.00 0.00 0.00 58 1015.5
20260508163300 62 271 0.0 1.0 0.00 0.00 0.00 59 1015.9
20260508161751 60 281 1.0 2.0 0.00 0.00 0.00 62 1016.1
20260508160250 61 268 2.0 3.0 0.00 0.00 0.00 61 1016.0
20260508154743 60 292 2.0 2.0 0.00 0.00 0.00 63 1016.3
20260508153240 61 238 1.0 2.0 0.00 0.00 0.00 60 1016.1
20260508151730 61 277 0.0 0.0 0.00 0.00 0.00 62 1016.3
20260508150221 60 284 0.0 0.0 0.00 0.00 0.00 63 1016.1
20260508144720 60 289 0.0 1.0 0.00 0.00 0.00 62 1016.3
20260508143230 58 281 0.0 0.0 0.00 0.00 0.00 66 1016.2
20260508141720 58 282 0.0 0.0 0.00 0.00 0.00 65 1016.2
20260508140200 58 264 0.0 1.0 0.00 0.00 0.00 64 1016.2
20260508134653 58 285 0.0 0.0 0.00 0.00 0.00 66 1016.2
20260508133150 60 282 0.0 1.0 0.00 0.00 0.00 62 1016.5
20260508131647 58 311 0.0 1.0 0.00 0.00 0.00 65 1016.2
20260508130140 57 283 0.0 0.0 0.00 0.00 0.00 67 1016.4
20260508124650 55 236 1.0 2.0 0.00 0.00 0.00 71 1016.6
20260508123124 52 283 0.0 1.0 0.00 0.00 0.00 76 1016.4
20260508121620 50 273 1.0 2.0 0.00 0.00 0.00 80 1016.6
20260508120110 50 315 0.0 1.0 0.00 0.00 0.00 81 1016.2
20260508114600 48 275 0.0 0.0 0.00 0.00 0.00 83 1016.1
20260508113059 48 282 0.0 0.0 0.00 0.00 0.00 84 1015.8
20260508111615 48 284 0.0 0.0 0.00 0.00 0.00 86 1015.9
20260508110054 47 282 0.0 0.0 0.00 0.00 0.00 87 1015.7
20260508104550 47 281 0.0 0.0 0.00 0.00 0.00 87 1015.7
20260508103048 46 277 0.0 0.0 0.00 0.00 0.00 88 1015.6
20260508101540 46 274 0.0 0.0 0.00 0.00 0.00 87 1015.5
20260508100034 46 278 0.0 0.0 0.00 0.00 0.00 87 1015.5
20260508094530 46 278 0.0 1.0 0.00 0.00 0.00 88 1015.7
20260508093022 45 278 0.0 0.0 0.00 0.00 0.00 89 1015.7
20260508091520 45 270 0.0 0.0 0.00 0.00 0.00 89 1015.5
20260508090010 45 275 0.0 0.0 0.00 0.00 0.00 89 1015.8
20260508084502 45 272 0.0 0.0 0.00 0.00 0.00 88 1015.6
20260508083020 46 271 0.0 0.0 0.00 0.00 0.00 87 1015.6
20260508081514 47 191 2.0 3.0 0.00 0.00 0.00 86 1015.8
20260508075950 47 273 0.0 0.0 0.00 0.00 0.00 86 1015.9
20260508074440 46 271 0.0 0.0 0.00 0.00 0.00 85 1016.0
20260508072933 46 271 0.0 0.0 0.00 0.00 0.00 86 1015.8
20260508071430 46 272 0.0 0.0 0.00 0.00 0.00 85 1016.2
20260508065927 46 277 0.0 0.0 0.00 0.00 0.00 82 1015.9
20260508064426 46 274 0.0 0.0 0.00 0.00 0.00 82 1016.3
20260508062922 47 275 0.0 0.0 0.00 0.00 0.00 80 1016.1
20260508061420 47 274 0.0 1.0 0.00 0.00 0.00 80 1016.1
20260508055917 47 277 0.0 0.0 0.00 0.00 0.00 79 1016.4
20260508054430 48 268 0.0 0.0 0.00 0.00 0.00 77 1016.3
20260508052900 48 278 0.0 0.0 0.00 0.00 0.00 76 1016.5
20260508051355 48 269 0.0 1.0 0.00 0.00 0.00 73 1016.4
20260508045910 48 274 0.0 0.0 0.00 0.00 0.00 72 1016.3
20260508044340 49 274 0.0 0.0 0.00 0.00 0.00 70 1016.5
20260508042832 49 272 0.0 0.0 0.00 0.00 0.00 69 1016.3
20260508041330 50 276 0.0 0.0 0.00 0.00 0.00 68 1016.4
20260508035840 50 275 0.0 0.0 0.00 0.00 0.00 67 1016.3
20260508034310 50 276 0.0 0.0 0.00 0.00 0.00 67 1016.4
20260508032810 50 281 0.0 0.0 0.00 0.00 0.00 66 1016.4
20260508031305 50 259 1.0 2.0 0.00 0.00 0.00 65 1016.6
20260508025800 51 272 0.0 2.0 0.00 0.00 0.00 64 1016.8
20260508024250 50 273 0.0 0.0 0.00 0.00 0.00 64 1016.9
20260508022743 51 275 0.0 1.0 0.00 0.00 0.00 63 1016.6
20260508021240 51 264 0.0 0.0 0.00 0.00 0.00 63 1016.7
20260508015738 51 271 0.0 1.0 0.00 0.00 0.00 62 1016.8
20260508014236 51 275 0.0 0.0 0.00 0.00 0.00 61 1016.7
20260508012734 51 271 0.0 1.0 0.00 0.00 0.00 60 1016.8
20260508011230 52 228 0.0 1.0 0.00 0.00 0.00 59 1016.3
20260508005720 53 231 3.0 3.0 0.00 0.00 0.00 55 1016.5
20260508004230 54 184 3.0 5.0 0.00 0.00 0.00 51 1016.3
20260508002709 55 276 0.0 1.0 0.00 0.00 0.00 44 1016.1
20260508001206 56 290 0.0 0.0 0.00 0.00 0.00 43 1015.9
20260507235720 56 288 0.0 0.0 0.00 0.00 0.00 42 1015.9
20260507234150 57 275 0.0 0.0 0.00 0.00 0.00 40 1015.9
20260507232704 57 301 0.0 0.0 0.00 0.00 0.00 40 1015.9
20260507231200 57 286 0.0 0.0 0.00 0.00 0.00 40 1016.0
20260507225659 58 284 0.0 0.0 0.00 0.00 0.00 38 1015.9
20260507224137 58 280 0.0 0.0 0.00 0.00 0.00 37 1015.9
20260507222634 58 302 0.0 2.0 0.00 0.00 0.00 36 1016.1
20260507221152 61 278 0.0 1.0 0.00 0.00 0.00 36 1016.0
20260507215631 62 288 1.0 2.0 0.00 0.00 0.00 34 1016.1
20260507214152 62 280 0.0 0.0 0.00 0.00 0.00 33 1016.1
20260507212644 61 279 0.0 2.0 0.00 0.00 0.00 37 1016.0
20260507211143 63 279 1.0 2.0 0.00 0.00 0.00 36 1016.0
20260507205640 63 279 0.0 1.0 0.00 0.00 0.00 34 1016.1
20260507204119 65 286 2.0 4.0 0.00 0.00 0.00 35 1016.4
20260507202615 62 355 0.0 1.0 0.00 0.00 0.00 36 1016.3
20260507201114 63 286 1.0 3.0 0.00 0.00 0.00 35 1016.4
20260507195631 61 269 1.0 3.0 0.00 0.00 0.00 38 1016.4